Flag for Canada Weather past 2 weeks in St. Catharines, Ontario, Canada

Now
57 °F

Passing clouds.


Feels Like: 55 °F
Forecast: 39 / 56 °F
Wind: 8 mph from West

Location: Saint Catharines Airport

Current Time: Apr 28, 2015 at 12:34:53 PM

Latest Report: Apr 28, 2015 at 12:00 PM


Visibility: 15 mi

Pressure: 30.02 "Hg

Humidity: 55%

Dew point: 41 °F

Location of St. CatharinesLocation

Historic Weather in St. Catharines — Graph

°F

St. Catharines temperature yesterday

Maximum temperature yesterday: 50 °F (at 2:00 PM)
Minimum temperature yesterday: 39 °F (at 8:00 AM)
Average temperature yesterday: 46 °F

Past Weeks' High & Low Weather Summary

 TemperatureHumidityPressure
High79 °F (Apr 13, 4:00 PM)100% (Apr 17, 8:00 AM)30.40 "Hg (Apr 17, 8:00 AM)
Low27 °F (Apr 25, 7:00 AM)25% (Apr 14, 3:00 PM)29.34 "Hg (Apr 20, 4:00 PM)
Average50 °F59%29.93 "Hg
* Reported Apr 13 11:00 AM — Apr 28 11:00 AM, St. Catharines, Weather by CustomWeather, © 2015

Note: Actual official high and low records may vary slightly from our data, if they occured in-between our weather recording intervals... More about our weather records

Advertising

St. Catharines weather history for previous 24 hours

 ConditionsComfort  
Time TempWeatherWind HumidityBarometerVisibility
11:00 AM
Tue, Apr 28
52 °FPassing clouds.9 mph62%30.04 "Hg15 mi
10:00 AM48 °FScattered clouds.10 mph66%30.04 "Hg15 mi
9:00 AM45 °FPartly sunny.9 mph76%30.04 "Hg15 mi
8:00 AM45 °FPartly sunny.9 mph76%30.03 "Hg15 mi
7:00 AM41 °FPassing clouds.8 mph81%30.02 "Hg15 mi
9:00 PM
Mon, Apr 27
48 °FPartly sunny.13 mph66%29.96 "Hg15 mi
8:00 PM50 °FPartly sunny.9 mph67%29.94 "Hg15 mi
7:00 PM50 °FPartly sunny.7 mph67%29.93 "Hg15 mi
6:00 PM50 °FOvercast.6 mph67%29.93 "Hg15 mi
5:00 PM50 °FPartly sunny.9 mph67%29.92 "Hg15 mi
4:00 PM48 °FOvercast.10 mph66%29.91 "Hg12 mi
3:00 PM46 °FMore clouds than sun.9 mph71%29.91 "Hg10 mi
2:51 PM48 °FLight rain. More clouds than sun.10 mph66%29.91 "Hg10 mi
2:00 PM50 °FPartly sunny.10 mph62%29.90 "Hg15 mi
1:00 PM46 °FPartly sunny.9 mph66%29.90 "Hg12 mi
12:00 PM46 °FBroken clouds.13 mph71%29.89 "Hg15 mi
Weather by CustomWeather, © 2015

See weather overviewHow to use our weather pages